CW6906 Weather Reports


time (UTC)temp
C
wind
direction
speed
KPH
gust
KPH
rain 1hr
cm
rain 24hr
cm
rain mn
cm
humidity
%
barometer
mb
20260506233116 18 69 12.9 17.7 0.00 0.00 0.00 57 1018.7
20260506232612 17 93 11.3 20.9 0.00 0.00 0.00 59 1018.6
20260506232108 17 74 11.3 17.7 0.00 0.00 0.00 57 1018.8
20260506231605 17 102 16.1 20.9 0.00 0.00 0.00 60 1018.6
20260506231103 17 96 9.7 22.5 0.00 0.00 0.00 60 1018.7
20260506230559 17 98 17.7 25.7 0.00 0.00 0.00 60 1018.8
20260506230057 17 88 12.9 29.0 0.00 0.00 0.00 60 1018.8
20260506225553 17 68 14.5 22.5 0.00 0.00 0.00 59 1019.0
20260506225050 17 99 14.5 24.1 0.00 0.00 0.00 60 1018.8
20260506224547 17 64 17.7 24.1 0.00 0.00 0.00 60 1019.0
20260506224043 17 71 22.5 29.0 0.00 0.00 0.00 61 1019.1
20260506223539 17 57 19.3 27.4 0.00 0.00 0.00 62 1019.0
20260506223036 17 60 20.9 27.4 0.00 0.00 0.00 60 1019.1
20260506222533 17 94 17.7 25.7 0.00 0.00 0.00 61 1019.1
20260506222029 17 67 12.9 24.1 0.00 0.00 0.00 60 1019.0
20260506221527 18 102 19.3 24.1 0.00 0.00 0.00 61 1018.8
20260506221025 17 85 14.5 24.1 0.00 0.00 0.00 62 1019.1
20260506220520 17 87 12.9 24.1 0.00 0.00 0.00 62 1019.0
20260506220016 17 74 20.9 32.2 0.00 0.00 0.00 62 1019.1
20260506215513 17 104 17.7 25.7 0.00 0.00 0.00 63 1019.2
20260506215009 17 81 14.5 25.7 0.00 0.00 0.00 63 1019.2
20260506214506 17 71 20.9 24.1 0.00 0.00 0.00 62 1019.3
20260506214003 17 77 17.7 25.7 0.00 0.00 0.00 65 1019.3
20260506213501 17 77 16.1 24.1 0.00 0.00 0.00 63 1019.1
20260506212958 17 86 12.9 27.4 0.00 0.00 0.00 63 1019.3
20260506212454 17 96 17.7 24.1 0.00 0.00 0.00 63 1019.0
20260506211949 17 74 14.5 24.1 0.00 0.00 0.00 62 1018.8
20260506211445 17 65 20.9 25.7 0.00 0.00 0.00 62 1019.0
20260506210942 16 110 19.3 24.1 0.00 0.00 0.00 64 1019.2
20260506210439 17 102 19.3 29.0 0.00 0.00 0.00 64 1019.1
20260506205936 16 96 17.7 25.7 0.00 0.00 0.00 64 1019.1
20260506205432 17 75 16.1 24.1 0.00 0.00 0.00 62 1019.1
20260506204928 17 94 20.9 27.4 0.00 0.00 0.00 65 1019.1
20260506204427 17 48 16.1 27.4 0.00 0.00 0.00 64 1019.1
20260506203924 16 77 19.3 27.4 0.00 0.00 0.00 64 1019.1
20260506203420 16 79 16.1 25.7 0.00 0.00 0.00 65 1019.1
20260506202917 17 82 19.3 27.4 0.00 0.00 0.00 63 1019.4
20260506202415 16 88 14.5 22.5 0.00 0.00 0.00 63 1019.1
20260506201911 16 93 11.3 25.7 0.00 0.00 0.00 65 1019.1
20260506201409 16 88 17.7 40.2 0.00 0.00 0.00 65 1019.2
20260506200905 16 61 29.0 40.2 0.00 0.00 0.00 66 1019.2
20260506200401 16 74 16.1 29.0 0.00 0.00 0.00 64 1019.2
20260506195858 16 82 12.9 17.7 0.00 0.00 0.00 63 1019.2
20260506195355 16 86 12.9 24.1 0.00 0.00 0.00 65 1019.4
20260506194851 16 105 16.1 20.9 0.00 0.00 0.00 64 1019.4
20260506194348 16 83 16.1 25.7 0.00 0.00 0.00 65 1019.4
20260506193846 15 73 16.1 24.1 0.00 0.00 0.00 68 1019.4
20260506193343 16 108 19.3 29.0 0.00 0.00 0.00 65 1019.5
20260506192839 15 93 17.7 46.7 0.00 0.00 0.00 67 1019.7
20260506192336 16 116 14.5 37.0 0.00 0.00 0.00 64 1019.5
20260506191833 16 81 25.7 41.8 0.00 0.00 0.00 65 1019.7
20260506191329 15 63 16.1 56.3 0.00 0.00 0.00 69 1019.7
20260506190826 15 81 38.6 43.5 0.00 0.00 0.00 66 1019.6
20260506190322 15 62 22.5 40.2 0.00 0.00 0.00 66 1019.7
20260506185820 15 73 20.9 27.4 0.00 0.00 0.00 67 1019.7
20260506185316 14 78 12.9 37.0 0.00 0.00 0.00 70 1019.7
20260506184814 14 64 17.7 29.0 0.00 0.00 0.00 69 1019.9
20260506184311 14 84 19.3 27.4 0.00 0.00 0.00 69 1020.1
20260506183808 14 54 17.7 29.0 0.00 0.00 0.00 69 1019.7
20260506183303 13 91 17.7 24.1 0.00 0.00 0.00 71 1020.1
20260506182800 13 82 14.5 22.5 0.00 0.00 0.00 70 1019.9
20260506182257 13 69 14.5 25.7 0.00 0.00 0.00 71 1020.0
20260506181755 13 100 16.1 24.1 0.00 0.00 0.00 71 1020.0
20260506181253 13 57 17.7 29.0 0.00 0.00 0.00 70 1019.9
20260506180750 13 49 16.1 25.7 0.00 0.00 0.00 71 1020.0
20260506180245 13 110 19.3 25.7 0.00 0.00 0.00 71 1020.1
20260506175742 13 63 8.0 20.9 0.00 0.00 0.00 71 1020.0
20260506175239 13 58 14.5 32.2 0.00 0.00 0.00 69 1020.1
20260506174737 13 119 14.5 17.7 0.00 0.00 0.00 70 1020.3
20260506174233 12 49 11.3 29.0 0.00 0.00 0.00 71 1020.2
20260506173732 13 53 11.3 20.9 0.00 0.00 0.00 70 1020.1
20260506173228 12 88 20.9 24.1 0.00 0.00 0.00 70 1020.0
20260506172725 13 73 11.3 17.7 0.00 0.00 0.00 69 1020.2
20260506172221 12 109 11.3 16.1 0.00 0.00 0.00 71 1020.0
20260506171719 11 136 11.3 20.9 0.00 0.00 0.00 73 1019.9
20260506171216 12 94 11.3 20.9 0.00 0.00 0.00 71 1020.1
20260506170713 11 85 14.5 17.7 0.00 0.00 0.00 73 1020.1
20260506170210 12 103 8.0 16.1 0.00 0.00 0.00 73 1020.1
20260506165709 12 109 9.7 27.4 0.00 0.00 0.00 72 1020.3
20260506165205 12 75 16.1 24.1 0.00 0.00 0.00 73 1020.3
20260506164702 11 95 6.4 11.3 0.00 0.00 0.00 74 1020.3
20260506164159 11 96 6.4 16.1 0.00 0.00 0.00 74 1020.1
20260506163655 11 78 11.3 24.1 0.00 0.00 0.00 74 1020.2
20260506163151 11 107 9.7 17.7 0.00 0.00 0.00 75 1020.2
20260506162647 11 114 8.0 14.5 0.00 0.00 0.00 74 1020.3
20260506162144 11 104 9.7 12.9 0.00 0.00 0.00 75 1020.3
20260506161642 10 57 9.7 12.9 0.00 0.00 0.00 78 1020.3
20260506161138 10 89 8.0 17.7 0.00 0.00 0.00 79 1020.2
20260506160636 11 81 8.0 35.4 0.00 0.00 0.00 77 1020.3
20260506160133 10 51 11.3 29.0 0.00 0.00 0.00 79 1020.3
20260506155632 10 69 11.3 25.7 0.00 0.00 0.00 79 1020.1
20260506155128 10 76 8.0 32.2 0.00 0.00 0.00 80 1020.0
20260506153230 10 75 9.7 16.1 0.00 0.00 0.00 80 1020.1
20260506152727 10 69 11.3 25.7 0.00 0.00 0.00 81 1020.0
20260506152224 9 67 14.5 22.5 0.00 0.00 0.00 80 1020.3
20260506151724 10 96 9.7 11.3 0.00 0.00 0.00 80 1020.1
20260506151220 10 116 6.4 11.3 0.00 0.00 0.00 81 1020.2
20260506150716 9 109 8.0 12.9 0.00 0.00 0.00 82 1019.7
20260506150213 9 67 6.4 9.7 0.00 0.00 0.00 82 1020.0
20260506145710 8 65 8.0 9.7 0.00 0.00 0.00 84 1020.1
20260506145207 8 113 6.4 12.9 0.00 0.00 0.00 85 1020.0
20260506144704 8 107 8.0 11.3 0.00 0.00 0.00 85 1019.7
20260506144201 8 104 6.4 8.0 0.00 0.00 0.00 85 1019.7
20260506143659 8 82 4.8 11.3 0.00 0.00 0.00 86 1020.0
20260506143156 8 87 6.4 9.7 0.00 0.00 0.00 87 1019.9
20260506142655 7 62 6.4 9.7 0.00 0.00 0.00 88 1019.7
20260506142152 7 341 3.2 3.2 0.00 0.00 0.00 89 1019.6
20260506141650 7 342 0.0 1.6 0.00 0.00 0.00 89 1019.4
20260506141148 7 25 0.0 1.6 0.00 0.00 0.00 90 1019.7
20260506140645 7 59 0.0 3.2 0.00 0.00 0.00 91 1019.5
20260506140142 7 72 3.2 3.2 0.00 0.00 0.00 91 1019.6
20260506135639 7 87 0.0 0.0 0.00 0.00 0.00 91 1019.4
20260506135135 6 87 0.0 0.0 0.00 0.00 0.00 91 1019.6
20260506134632 6 87 0.0 0.0 0.00 0.00 0.00 91 1019.3
20260506134127 6 87 0.0 0.0 0.00 0.00 0.00 91 1019.5
20260506133625 6 87 0.0 0.0 0.00 0.00 0.00 91 1019.5
20260506133122 6 87 0.0 0.0 0.00 0.00 0.00 91 1019.5
20260506132619 6 85 0.0 0.0 0.00 0.00 0.00 91 1019.4
20260506132116 6 85 0.0 0.0 0.00 0.00 0.00 91 1019.5
20260506131614 6 85 0.0 0.0 0.00 0.00 0.00 91 1019.2
20260506131110 6 87 1.6 3.2 0.00 0.00 0.00 91 1019.1
20260506130607 6 94 1.6 3.2 0.00 0.00 0.00 91 1019.2
20260506130104 6 93 1.6 3.2 0.00 0.00 0.00 91 1019.1
20260506125603 6 92 1.6 3.2 0.00 0.00 0.00 90 1019.2
20260506125100 6 91 1.6 3.2 0.00 0.00 0.00 90 1018.8
20260506124557 6 91 1.6 3.2 0.00 0.00 0.00 90 1019.0
20260506124055 6 90 0.0 1.6 0.00 0.00 0.00 90 1019.1
20260506123552 6 87 0.0 1.6 0.00 0.00 0.00 90 1019.1
20260506123051 6 86 0.0 1.6 0.00 0.00 0.00 90 1019.0
20260506122547 6 85 1.6 1.6 0.00 0.00 0.00 90 1018.8
20260506122046 6 85 0.0 1.6 0.00 0.00 0.00 90 1018.8
20260506121542 6 82 3.2 3.2 0.00 0.00 0.00 90 1019.0
20260506121038 7 70 1.6 1.6 0.00 0.00 0.00 90 1019.1
20260506120537 7 41 1.6 1.6 0.00 0.00 0.00 90 1019.2
20260506120034 7 41 0.0 0.0 0.00 0.00 0.00 89 1019.1
20260506115532 7 48 3.2 3.2 0.00 0.00 0.00 89 1019.0
20260506115030 7 77 1.6 3.2 0.00 0.00 0.00 89 1019.1
20260506114527 7 82 3.2 3.2 0.00 0.00 0.00 89 1019.2
20260506114026 7 68 1.6 3.2 0.00 0.00 0.00 89 1019.0
20260506113523 7 53 1.6 3.2 0.00 0.00 0.00 89 1019.0
20260506113020 7 64 1.6 4.8 0.00 0.00 0.00 89 1019.0
20260506112516 7 64 4.8 8.0 0.00 0.00 0.00 89 1019.1
20260506112014 7 71 1.6 4.8 0.00 0.00 0.00 89 1018.7
20260506111512 7 45 3.2 3.2 0.00 0.00 0.00 89 1018.7
20260506111009 7 48 1.6 3.2 0.00 0.00 0.00 89 1018.8
20260506110507 7 76 4.8 8.0 0.00 0.00 0.00 89 1018.7
20260506110004 7 45 0.0 4.8 0.00 0.00 0.00 89 1018.7
20260506105459 7 69 3.2 4.8 0.00 0.00 0.00 89 1018.7
20260506104957 7 61 1.6 3.2 0.00 0.00 0.00 89 1018.7
20260506104455 7 65 4.8 8.0 0.00 0.00 0.00 88 1018.6
20260506103953 7 56 1.6 3.2 0.00 0.00 0.00 88 1018.8
20260506103449 7 38 4.8 4.8 0.00 0.00 0.00 88 1018.6
20260506102946 7 274 0.0 0.0 0.00 0.00 0.00 88 1018.8
20260506102444 7 268 0.0 0.0 0.00 0.00 0.00 89 1018.8
20260506101941 7 282 0.0 0.0 0.00 0.00 0.00 89 1018.8
20260506101438 7 281 0.0 0.0 0.00 0.00 0.00 89 1018.5
20260506100935 7 278 0.0 0.0 0.00 0.00 0.00 89 1018.5
20260506100433 7 277 0.0 0.0 0.00 0.00 0.00 89 1018.5
20260506095931 7 277 0.0 0.0 0.00 0.00 0.00 89 1018.5
20260506095429 7 277 0.0 0.0 0.00 0.00 0.00 89 1018.5
20260506094925 7 280 0.0 1.6 0.00 0.00 0.00 89 1018.5
20260506094424 7 280 1.6 3.2 0.00 0.00 0.00 89 1018.4
20260506093921 7 268 0.0 0.0 0.00 0.00 0.00 89 1018.4
20260506093419 7 268 1.6 1.6 0.00 0.00 0.00 89 1018.5
20260506092917 7 268 0.0 1.6 0.00 0.00 0.00 89 1018.5
20260506092415 7 276 0.0 3.2 0.00 0.00 0.00 89 1018.4
20260506091911 7 271 1.6 3.2 0.00 0.00 0.00 89 1018.4
20260506091409 7 267 0.0 0.0 0.00 0.00 0.00 89 1018.5
20260506090906 7 268 0.0 0.0 0.00 0.00 0.00 89 1018.5
20260506090403 7 269 1.6 1.6 0.00 0.00 0.00 89 1018.6
20260506085900 7 266 0.0 0.0 0.00 0.00 0.00 88 1018.5
20260506085356 7 266 0.0 0.0 0.00 0.00 0.00 88 1018.3
20260506084853 7 265 0.0 0.0 0.00 0.00 0.00 88 1018.5
20260506084349 7 271 0.0 1.6 0.00 0.00 0.00 88 1018.6
20260506083846 7 274 0.0 0.0 0.00 0.00 0.00 88 1018.5
20260506083344 7 281 0.0 1.6 0.00 0.00 0.00 88 1018.3
20260506082841 7 283 0.0 0.0 0.00 0.00 0.00 88 1018.3
20260506082338 7 284 0.0 1.6 0.00 0.00 0.00 87 1018.5
20260506081833 7 285 0.0 1.6 0.00 0.00 0.00 87 1018.4
20260506081332 7 285 1.6 3.2 0.00 0.00 0.00 87 1018.4
20260506080829 7 284 0.0 1.6 0.00 0.00 0.00 88 1018.4
20260506080325 6 282 0.0 0.0 0.00 0.00 0.00 87 1018.6
20260506073310 7 265 0.0 1.6 0.00 0.00 0.00 87 1018.4
20260506072806 7 268 0.0 0.0 0.00 0.00 0.00 87 1018.4
20260506072305 7 274 0.0 3.2 0.00 0.00 0.00 87 1018.2
20260506071801 7 256 0.0 1.6 0.00 0.00 0.00 87 1018.4
20260506071259 7 256 0.0 0.0 0.00 0.00 0.00 87 1018.1
20260506070756 7 255 0.0 0.0 0.00 0.00 0.00 87 1017.9
20260506070253 7 255 0.0 0.0 0.00 0.00 0.00 86 1018.1
20260506062230 7 253 0.0 0.0 0.00 0.03 0.03 86 1017.6
20260506061726 7 253 0.0 0.0 0.00 0.03 0.03 86 1017.7
20260506061224 7 254 0.0 0.0 0.00 0.03 0.03 86 1017.4
20260506060722 7 254 0.0 1.6 0.00 0.03 0.03 86 1017.4
20260506060219 7 253 0.0 0.0 0.00 0.03 0.03 86 1017.4
20260506051151 7 252 0.0 0.0 0.00 0.03 0.03 87 1016.9
20260506050649 7 251 0.0 1.6 0.00 0.03 0.03 87 1017.0
20260506050146 7 251 0.0 0.0 0.00 0.03 0.03 87 1017.0
20260506044637 7 242 0.0 1.6 0.00 0.03 0.03 87 1017.0
20260506044134 7 230 0.0 0.0 0.00 0.03 0.03 87 1016.9
20260506043631 7 231 0.0 0.0 0.00 0.03 0.03 87 1016.7
20260506043129 7 230 0.0 0.0 0.00 0.03 0.03 87 1016.9
20260506042627 7 225 1.6 1.6 0.00 0.03 0.03 88 1016.8
20260506042125 7 219 0.0 1.6 0.00 0.03 0.03 88 1016.6
20260506041624 6 216 0.0 0.0 0.00 0.03 0.03 88 1016.8
20260506041120 6 210 0.0 0.0 0.00 0.03 0.03 88 1016.6
20260506040618 6 201 0.0 1.6 0.00 0.03 0.03 88 1016.4
20260506040114 6 167 1.6 3.2 0.00 0.03 0.03 88 1016.5
20260506035611 6 235 0.0 1.6 0.00 0.03 0.03 89 1016.4
20260506035108 6 239 0.0 0.0 0.00 0.03 0.03 89 1016.7
20260506034605 7 241 0.0 1.6 0.00 0.03 0.03 89 1016.4
20260506034102 7 284 1.6 3.2 0.00 0.03 0.03 89 1016.1
20260506033559 7 251 0.0 1.6 0.00 0.03 0.03 89 1016.1
20260506033056 7 256 0.0 0.0 0.00 0.03 0.03 89 1015.9
20260506032553 6 254 0.0 1.6 0.00 0.03 0.03 89 1016.0
20260506032050 6 279 1.6 1.6 0.00 0.03 0.03 89 1016.1
20260506031548 6 294 0.0 0.0 0.00 0.03 0.03 89 1015.9
20260506031044 6 300 0.0 0.0 0.00 0.03 0.03 89 1015.8
20260506030543 6 316 1.6 1.6 0.00 0.03 0.03 89 1015.9
20260506030040 7 12 0.0 0.0 0.00 0.03 0.03 89 1015.8
20260506025537 7 58 0.0 0.0 0.00 0.03 0.03 89 1015.7
20260506025032 7 61 0.0 1.6 0.00 0.03 0.03 88 1015.5
20260506024530 7 65 1.6 4.8 0.00 0.03 0.03 88 1015.6
20260506024026 7 71 1.6 9.7 0.00 0.03 0.03 88 1015.6
20260506023522 7 97 1.6 8.0 0.00 0.03 0.03 88 1015.5
20260506023020 7 79 4.8 4.8 0.00 0.03 0.03 87 1015.4
20260506022517 7 123 1.6 4.8 0.00 0.03 0.03 87 1015.2
20260506022015 7 121 1.6 4.8 0.00 0.03 0.03 87 1015.4
20260506021512 7 72 8.0 9.7 0.00 0.03 0.03 87 1015.4
20260506021009 7 48 6.4 14.5 0.00 0.03 0.03 87 1015.1
20260506020507 7 83 3.2 8.0 0.00 0.03 0.03 87 1015.1
20260506020004 7 58 1.6 12.9 0.00 0.03 0.03 87 1015.0
20260506015501 8 68 4.8 9.7 0.00 0.03 0.03 87 1014.8
20260506014958 8 74 9.7 11.3 0.00 0.03 0.03 87 1015.1
20260506014455 8 92 3.2 11.3 0.00 0.03 0.03 87 1014.9
20260506013951 8 76 9.7 17.7 0.00 0.03 0.03 87 1015.0
20260506013449 8 79 9.7 12.9 0.00 0.03 0.03 87 1014.9
20260506012945 8 52 4.8 14.5 0.00 0.03 0.03 86 1014.7
20260506012442 8 74 11.3 24.1 0.00 0.03 0.03 87 1014.8
20260506011939 8 79 6.4 11.3 0.00 0.03 0.03 87 1015.0
20260506011436 8 77 6.4 9.7 0.00 0.03 0.03 88 1014.9
20260506010933 7 45 11.3 17.7 0.00 0.03 0.03 89 1014.8
20260506010432 7 45 4.8 8.0 0.00 0.03 0.03 90 1014.9
20260506005927 7 51 8.0 14.5 0.00 0.03 0.03 91 1014.8
20260506005426 7 48 6.4 11.3 0.00 0.03 0.03 92 1014.8
20260506004920 7 84 6.4 9.7 0.00 0.03 0.03 92 1014.7
20260506004419 7 47 6.4 11.3 0.00 0.03 0.03 92 1014.9
20260506003914 7 69 8.0 12.9 0.00 0.03 0.03 92 1015.0
20260506003411 7 46 11.3 12.9 0.00 0.03 0.03 92 1015.1
20260506002908 7 80 8.0 12.9 0.00 0.03 0.03 92 1014.9
20260506002404 7 43 6.4 17.7 0.00 0.03 0.03 92 1014.9
20260506001859 7 46 9.7 12.9 0.00 0.03 0.03 92 1014.9
20260506001356 7 76 8.0 16.1 0.00 0.03 0.03 92 1014.8
20260506000853 7 67 12.9 14.5 0.00 0.03 0.03 91 1014.8
20260506000354 7 62 4.8 11.3 0.00 0.03 0.03 91 1014.7
20260505235848 7 99 4.8 8.0 0.00 0.03 0.03 91 1014.5
20260505235345 7 76 8.0 16.1 0.00 0.03 0.03 90 1014.5
20260505234842 7 73 8.0 12.9 0.00 0.03 0.03 90 1014.3
20260505234340 7 65 9.7 14.5 0.00 0.03 0.03 89 1014.2
20260505233837 7 64 9.7 11.3 0.00 0.03 0.03 89 1014.5